Miscellaneous Local Product
Issued by NWS Hastings, NE

Home | Current Version | Previous Version | Graphics & Text | Print | Product List | Glossary On
Versions: 1 2 3 4 5 6 7 8 9 10 11 12 13 14 15 16 17 18 19 20 21 22 23 24 25 26 27 28 29 30 31 32 33 34 35 36 37 38 39 40 41 42 43 44 45 46 47 48 49 50
000
AXUS43 KGID 202202
MISGRI

GID CWA HOURLY WEATHER ROUNDUP
NATIONAL WEATHER SERVICE HASTINGS NE
400 PM CST THU NOV 20 2014

NOTE: "FAIR" INDICATES FEW OR NO CLOUDS BELOW 12,000 FEET WITH NO
SIGNIFICANT WEATHER AND/OR OBSTRUCTIONS TO VISIBILITY.

...SOUTH CENTRAL NEBRASKA...

CITY           SKY/WX    TMP DP  RH WIND       PRES   REMARKS
GRAND ISLAND   SUNNY     35  22  58 E12       30.11S WCI  27
HASTINGS       SUNNY     38  19  46 SE9       30.08F WCI  31
KEARNEY        SUNNY     37  19  48 E8        30.09S WCI  31
ORD            SUNNY     35  20  54 SE9       30.08R WCI  28
YORK           SUNNY     32  23  69 E7        30.15R WCI  26
AURORA         SUNNY     32  23  69 E8        30.12S WCI  25
LEXINGTON      SUNNY     40  23  50 SE8       30.04F WCI  34
HOLDREGE       SUNNY     40  21  46 SE6       30.05F
HEBRON         SUNNY     39  19  44 SE6       30.13S WCI  34

...NEBRASKA PANHANDLE...

CITY           SKY/WX    TMP DP  RH WIND       PRES   REMARKS
CHADRON        SUNNY     43  23  45 CALM      29.92F
ALLIANCE       SUNNY     52  17  25 S9        29.91S
SCOTTSBLUFF    SUNNY     54  17  23 N3        29.92F
SIDNEY         SUNNY     53  16  23 SW12      29.95S

...WESTERN AND NORTH CENTRAL NEBRASKA...

CITY           SKY/WX    TMP DP  RH WIND       PRES   REMARKS
VALENTINE      SUNNY     34  24  67 SE8       30.01S WCI  27
AINSWORTH      SUNNY     36  23  61 SE9       30.02S WCI  29
ONEILL         CLEAR     26  20  79 E8        30.10S WCI  18
BROKEN BOW     SUNNY     39  22  50 SE12      30.04S WCI  32
IMPERIAL       SUNNY     49  18  29 SE7       29.99S
NORTH PLATTE   SUNNY     43  20  39 E8        30.00F
MCCOOK         SUNNY     44  22  41 E8        30.03R

...EASTERN NEBRASKA...

CITY           SKY/WX    TMP DP  RH WIND       PRES   REMARKS
NORFOLK        CLOUDY    28  18  66 E5        30.15S WCI  23
SO SIOUX CITY  CLEAR     27  13  55 NW3       30.20S
TEKAMAH        CLOUDY    29  17  61 N7        30.20F WCI  22
COLUMBUS       CLEAR     28  19  69 E7        30.18R WCI  21
ALBION         CLEAR     31  20  63 E9        30.12S WCI  23
OMAHA EPPLEY   MOCLDY    29  18  63 N7        30.22S WCI  22
OFFUTT AFB     PTCLDY    31  18  59 N7        30.20R WCI  24
MILLARD        CLEAR     30  18  60 N3        30.20S
LINCOLN        CLEAR     34  20  56 E6        30.19R WCI  29
NEBRASKA CITY  CLEAR     32  17  54 NE8       30.19R WCI  25
BEATRICE       CLEAR     37  21  52 E5        30.15S WCI  33
FALLS CITY     CLEAR     35  19  52 NE5       30.19S WCI  31

...NORTHERN KANSAS...

CITY           SKY/WX    TMP DP  RH WIND       PRES   REMARKS
GOODLAND       SUNNY     54  17  23 E6        29.99S
HILL CITY      SUNNY     51  26  37 E7        30.03S
NORTON         CLEAR     43  18  36 E6        30.04R
PHILLIPSBURG   SUNNY     48  25  40 E10       30.06S
BELOIT         SUNNY     43  19  39 E7        30.10S
HAYS           SUNNY     48  25  40 S7        30.05R
RUSSELL        SUNNY     49  24  37 S7        30.05R
CONCORDIA      SUNNY     40  20  44 E9        30.12R WCI  34
SALINA         SUNNY     48  21  34 E8        30.11S
TOPEKA         SUNNY     41  19  41 E7        30.18S



USA.gov is the U.S. government's official web portal to all federal, state and local government web resources and services.